Location: Bittelbronn
(48.4454°N, 8.5870°E)
Time: 19:41:32
(UTC+00:00)

Okean 2 Rocket - Pass Details

Date: 23 May 2024
Orbit: 614 x 637 km, 82.5° (Epoch: 23 June)

Event Time Altitude Azimuth Distance (km) Brightness Sun altitude
Rises 02:47:25 0° 345° (NNW) 2,898 6.9 -7.2°
Reaches altitude 10° 02:49:41 10° 341° (NNW) 1,989 6.0 -6.9°
Maximum altitude 02:53:56 50° 266° (W) 792 3.3 -6.4°
Drops below altitude 10° 02:58:10 10° 191° (SSW) 1,981 5.2 -5.8°
Sets 03:00:26 0° 186° (S) 2,885 6.1 -5.5°
